Location: *
(49.0044°N, 9.5056°E)
Time: 12:08:16
(UTC+00:00)

CZ-4C R/B - Pass Details

Date: 22 September 2019
Orbit: 653 x 1349 km, 63.4° (Epoch: 20 October)

Event Time Altitude Azimuth Distance (km) Brightness Sun altitude
Rises 21:00:35 0° 316° (NW) 3,669 6.6 -33.0°
Reaches altitude 10° 21:03:08 10° 323° (NW) 2,821 5.7 -33.3°
Maximum altitude 21:09:39 46° 35° (NE) 1,518 3.5 -34.0°
Enters shadow 21:09:50 45° 39° (NE) 1,524 3.4 -34.0°
